Hourly Weather Mazatenango

Today, 29 October, Thursday

Time Temperature Precipitation Wind Pressure Humidity
00:00 +25°C° 0.6 mm 1 mps 725 mmHg 93%
01:00 +24°C° 0.7 mm 1 mps 725 mmHg 92%
02:00 +24°C° 0.7 mm 1 mps 725 mmHg 92%
03:00 +24°C° 0.7 mm 1 mps 725 mmHg 92%
04:00 +24°C° 0.3 mm 1 mps 725 mmHg 91%
05:00 +24°C° 0.3 mm 2 mps 725 mmHg 90%
06:00 +24°C° 0.3 mm 2 mps 725 mmHg 89%
07:00 +25°C° 0.4 mm 1 mps 726 mmHg 86%
08:00 +27°C° 0.4 mm 1 mps 727 mmHg 83%
09:00 +26°C° 0.4 mm 0 mps 727 mmHg 79%
10:00 +29°C° 0.3 mm 1 mps 727 mmHg 76%
11:00 +30°C° 0.3 mm 1 mps 726 mmHg 73%
12:00 +31°C° 0.3 mm 1 mps 726 mmHg 70%
13:00 +29°C° 1.8 mm 1 mps 725 mmHg 78%
14:00 +28°C° 1.8 mm 1 mps 724 mmHg 85%
15:00 +24°C° 1.8 mm 0 mps 724 mmHg 93%
16:00 +24°C° 0.6 mm 0 mps 724 mmHg 93%
17:00 +24°C° 0.6 mm 0 mps 725 mmHg 94%
18:00 +23°C° 0.6 mm 0 mps 725 mmHg 95%
19:00 +25°C° 0.7 mm 1 mps 726 mmHg 94%
20:00 +25°C° 0.7 mm 1 mps 726 mmHg 94%
21:00 +24°C° 0.7 mm 1 mps 727 mmHg 94%
22:00 +24°C° 0.1 mm 1 mps 727 mmHg 93%
23:00 +24°C° 0.1 mm 1 mps 726 mmHg 93%

Tomorrow, 30 October, Friday

Time Temperature Precipitation Wind Pressure Humidity
00:00 +24°C° 0.1 mm 1 mps 726 mmHg 92%
01:00 +24°C° 0 mm 1 mps 726 mmHg 90%
02:00 +23°C° 0 mm 2 mps 726 mmHg 89%
03:00 +23°C° 0 mm 2 mps 725 mmHg 88%
04:00 +23°C° 0 mm 2 mps 725 mmHg 86%
05:00 +23°C° 0 mm 2 mps 726 mmHg 84%
06:00 +23°C° 0 mm 2 mps 726 mmHg 82%
07:00 +25°C° 0 mm 1 mps 726 mmHg 79%
08:00 +26°C° 0 mm 1 mps 727 mmHg 77%
09:00 +27°C° 0 mm 1 mps 728 mmHg 75%
10:00 +29°C° 0.3 mm 1 mps 727 mmHg 72%
11:00 +30°C° 0.3 mm 1 mps 727 mmHg 70%
12:00 +31°C° 0.3 mm 1 mps 727 mmHg 68%
13:00 +30°C° 1.2 mm 1 mps 726 mmHg 74%
14:00 +30°C° 1.2 mm 1 mps 725 mmHg 80%
15:00 +29°C° 1.2 mm 1 mps 725 mmHg 85%
16:00 +28°C° 2.2 mm 1 mps 725 mmHg 88%
17:00 +27°C° 2.2 mm 1 mps 726 mmHg 90%
18:00 +25°C° 2.2 mm 1 mps 726 mmHg 93%
19:00 +25°C° 0.3 mm 1 mps 727 mmHg 92%
20:00 +24°C° 0.3 mm 1 mps 727 mmHg 92%
21:00 +24°C° 0.3 mm 2 mps 728 mmHg 92%
22:00 +24°C° 0 mm 2 mps 728 mmHg 90%
23:00 +23°C° 0 mm 2 mps 728 mmHg 87%

Day after tomorrow, 31 October, Saturday

Time Temperature Precipitation Wind Pressure Humidity
00:00 +23°C° 0 mm 2 mps 728 mmHg 85%
01:00 +23°C° 0 mm 2 mps 727 mmHg 83%
02:00 +23°C° 0 mm 2 mps 727 mmHg 80%
03:00 +23°C° 0 mm 2 mps 727 mmHg 77%
04:00 +23°C° 0 mm 2 mps 727 mmHg 76%
05:00 +23°C° 0 mm 2 mps 727 mmHg 75%
06:00 +23°C° 0 mm 2 mps 727 mmHg 75%
07:00 +25°C° 0 mm 1 mps 728 mmHg 71%
08:00 +27°C° 0 mm 1 mps 728 mmHg 66%
09:00 +28°C° 0 mm 0 mps 729 mmHg 62%
10:00 +30°C° 0 mm 1 mps 728 mmHg 61%
11:00 +31°C° 0 mm 1 mps 728 mmHg 61%
12:00 +32°C° 0 mm 2 mps 728 mmHg 60%
13:00 +31°C° 0.4 mm 2 mps 727 mmHg 65%
14:00 +30°C° 0.4 mm 1 mps 726 mmHg 71%
15:00 +30°C° 0.4 mm 1 mps 726 mmHg 76%
16:00 +29°C° 0.4 mm 1 mps 726 mmHg 81%
17:00 +27°C° 0.4 mm 1 mps 726 mmHg 86%
18:00 +26°C° 0.4 mm 1 mps 727 mmHg 91%
19:00 +25°C° 0.7 mm 1 mps 727 mmHg 91%
20:00 +25°C° 0.7 mm 1 mps 728 mmHg 91%
21:00 +24°C° 0.7 mm 2 mps 728 mmHg 91%
22:00 +24°C° 0 mm 2 mps 728 mmHg 89%
23:00 +23°C° 0 mm 2 mps 728 mmHg 87%

1 November, Sunday

Time Temperature Precipitation Wind Pressure Humidity
00:00 +23°C° 0 mm 2 mps 728 mmHg 85%
01:00 +23°C° 0 mm 2 mps 727 mmHg 82%
02:00 +23°C° 0 mm 2 mps 727 mmHg 79%
03:00 +23°C° 0 mm 2 mps 727 mmHg 76%
04:00 +23°C° 0 mm 2 mps 727 mmHg 75%
05:00 +23°C° 0 mm 2 mps 727 mmHg 73%
06:00 +23°C° 0 mm 2 mps 727 mmHg 72%
07:00 +25°C° 0 mm 1 mps 727 mmHg 69%
08:00 +27°C° 0 mm 1 mps 728 mmHg 66%
09:00 +30°C° 0 mm 1 mps 728 mmHg 63%
10:00 +30°C° 0 mm 1 mps 728 mmHg 61%
11:00 +31°C° 0 mm 1 mps 727 mmHg 59%
12:00 +32°C° 0 mm 1 mps 727 mmHg 57%
13:00 +32°C° 0.2 mm 2 mps 726 mmHg 62%
14:00 +31°C° 0.2 mm 2 mps 726 mmHg 67%
15:00 +30°C° 0.2 mm 2 mps 725 mmHg 72%
16:00 +29°C° 0.9 mm 2 mps 726 mmHg 78%
17:00 +27°C° 0.9 mm 1 mps 726 mmHg 85%
18:00 +26°C° 0.9 mm 1 mps 726 mmHg 92%
19:00 +25°C° 0.4 mm 1 mps 727 mmHg 92%
20:00 +24°C° 0.4 mm 2 mps 727 mmHg 91%
21:00 +24°C° 0.4 mm 2 mps 728 mmHg 91%
22:00 +24°C° 0 mm 2 mps 728 mmHg 88%
23:00 +23°C° 0 mm 2 mps 727 mmHg 85%

2 November, Monday

Time Temperature Precipitation Wind Pressure Humidity
00:00 +23°C° 0 mm 2 mps 727 mmHg 82%
01:00 +24°C° 0 mm 2 mps 727 mmHg 80%
02:00 +24°C° 0 mm 2 mps 727 mmHg 78%
03:00 +24°C° 0 mm 2 mps 726 mmHg 75%
04:00 +24°C° 0 mm 2 mps 727 mmHg 75%
05:00 +24°C° 0 mm 2 mps 727 mmHg 74%
06:00 +24°C° 0 mm 2 mps 727 mmHg 74%
07:00 +26°C° 0 mm 1 mps 727 mmHg 70%
08:00 +28°C° 0 mm 1 mps 727 mmHg 65%
09:00 +30°C° 0 mm 1 mps 728 mmHg 61%
10:00 +31°C° 0 mm 1 mps 727 mmHg 59%
11:00 +32°C° 0 mm 1 mps 727 mmHg 57%
12:00 +32°C° 0 mm 1 mps 726 mmHg 55%
13:00 +32°C° 0.3 mm 2 mps 726 mmHg 61%
14:00 +31°C° 0.3 mm 2 mps 725 mmHg 66%
15:00 +30°C° 0.3 mm 2 mps 725 mmHg 71%
16:00 +29°C° 0.5 mm 1 mps 725 mmHg 77%
17:00 +27°C° 0.5 mm 1 mps 726 mmHg 82%
18:00 +25°C° 0.5 mm 1 mps 726 mmHg 87%
19:00 +24°C° 0.1 mm 1 mps 726 mmHg 84%
20:00 +24°C° 0.1 mm 2 mps 727 mmHg 81%
21:00 +23°C° 0.1 mm 2 mps 727 mmHg 77%
22:00 +23°C° 0 mm 2 mps 727 mmHg 72%
23:00 +23°C° 0 mm 2 mps 727 mmHg 67%

3 November, Tuesday

Time Temperature Precipitation Wind Pressure Humidity
00:00 +23°C° 0 mm 2 mps 727 mmHg 61%
01:00 +23°C° 0 mm 2 mps 726 mmHg 60%
02:00 +23°C° 0 mm 2 mps 726 mmHg 58%
03:00 +23°C° 0 mm 2 mps 726 mmHg 56%
04:00 +23°C° 0 mm 2 mps 726 mmHg 56%
05:00 +23°C° 0 mm 2 mps 726 mmHg 57%
06:00 +23°C° 0 mm 2 mps 726 mmHg 57%
07:00 +25°C° 0 mm 2 mps 726 mmHg 57%
08:00 +28°C° 0 mm 1 mps 727 mmHg 56%
09:00 +30°C° 0 mm 1 mps 727 mmHg 55%
10:00 +31°C° 0 mm 1 mps 727 mmHg 54%
11:00 +32°C° 0 mm 1 mps 726 mmHg 53%
12:00 +33°C° 0 mm 1 mps 726 mmHg 53%
13:00 +32°C° 0 mm 2 mps 725 mmHg 56%
14:00 +32°C° 0 mm 2 mps 725 mmHg 59%
15:00 +31°C° 0 mm 2 mps 724 mmHg 62%
16:00 +29°C° 0 mm 1 mps 724 mmHg 70%
17:00 +27°C° 0 mm 1 mps 725 mmHg 78%
18:00 +25°C° 0 mm 1 mps 725 mmHg 87%
19:00 +26°C° 0 mm 1 mps 725 mmHg 84%
20:00 +26°C° 0 mm 1 mps 726 mmHg 81%
21:00 +26°C° 0 mm 1 mps 726 mmHg 78%
22:00 +26°C° 0 mm 1 mps 726 mmHg 78%
23:00 +25°C° 0 mm 1 mps 726 mmHg 77%
Show more

We Need Your Consent

Meteoprog and our Service Providers may store and access personal data such as cookies, device identifiers or other similar technologies on your device and process such data to personalise content and ads, as well as provide social media features and to analyse the traffic.

  • Store and/or access information on your device

    Cookies, device identifiers or other information can be stored or accessed on your device for the purposes indicated above.

  • Personalised ads and content, ad and content measurement, audience insights, and products development

    Ads and content can be personalised based on a profile. More data can be added to better personalise ads and content. Ad and content performance can be measured. Insights about the audience who saw the ads and content can be derived. Such data can be used to develop or improve user’s experience, systems and software.

By clicking ‘I Agree’ you will allow the use of indicated cookies, device identifiers, web beacons or other similar technologies. Your settings can be changed in the browser on your device.

For certain purposes, legitimate interests may be relied on, rather than consent. You can read more about this in our Privacy and Cookie Policy.